Regional Weather Roundup
Issued by NWS

Home | Current Version | Previous Version | Text Only | Print | Product List | Glossary Off
Versions: 1 2 3 4 5 6 7 8 9 10 11 12 13 14 15 16 17 18 19 20 21 22 23 24 25 26 27 28 29 30 31 32 33 34 35 36 37 38 39 40 41 42 43 44 45 46 47 48 49 50

000
ASUS43 KLOT 182308
RWRIL

ILLINOIS REGIONAL WEATHER ROUNDUP
NATIONAL WEATHER SERVICE CHICAGO/ROMEOVILLE IL
500 PM CST SAT NOV 18 2017

NOTE: "FAIR" INDICATES FEW OR NO CLOUDS BELOW 12,000 FEET WITH NO
SIGNIFICANT WEATHER AND/OR OBSTRUCTIONS TO VISIBILITY.

* THESE STATIONS ARE NOT UNDER NWS QUALITY CONTROL. THEY ALSO MAY NOT
  REPORT WEATHER SUCH AS PRECIPITATION OR FOG.

ILZ001-002-007-009-015-016-024-190000-
NORTHWEST ILLINOIS

CITY           SKY/WX    TMP DP  RH WIND       PRES   REMARKS
MOLINE         MOCLDY    42  33  70 NW15      29.77R
STERLING*      CLOUDY    38  33  82 NW10      29.74R WCI  31
SAVANNA*       PTCLDY    39  32  77 NW10G16   29.74R WCI  32
$$

ILZ003-004-008-010-011-017-018-190000-
NORTH CENTRAL ILLINOIS

CITY           SKY/WX    TMP DP  RH WIND       PRES   REMARKS
ROCKFORD       MOCLDY    38  32  79 NW16      29.70R WCI  29
FREEPORT*      PTCLDY    35  31  84 NW12      29.73R WCI  27
ROCHELLE*      CLOUDY    37  33  83 NW15G25   29.70R WCI  28
DE KALB*       CLOUDY    38  33  84 NW14G23   29.67R WCI  29
PERU*          CLOUDY    38  32  79 NW21G26   29.72R WCI  28
$$

ILZ005-006-012>014-019>023-190000-
NORTHEAST ILLINOIS

CITY           SKY/WX    TMP DP  RH WIND       PRES   REMARKS
CHICAGO-OHARE  CLOUDY    40  33  76 N18       29.61R
CHICAGO-MIDWAY CLOUDY    40  35  83 NW21G32   29.61R
AURORA         CLOUDY    39  34  82 NW20G26   29.66R WCI  29
LANSING*       CLOUDY    39  37  90 NW15G24   29.59R WCI  31
JOLIET*        CLOUDY    40  36  83 N12G24    29.64R
WAUKEGAN       CLOUDY    39  33  79 N13G21    29.62R WCI  31
DUPAGE AIRPORT CLOUDY    39  34  82 N17G29    29.63R WCI  30
KANKAKEE*      CLOUDY    38  37  97 NW17G28   29.63R WCI  29
WHEELING       CLOUDY    40  34  79 N15G24    29.63R
MORRIS*        CLOUDY    39  34  82 N14G23    29.65R WCI  31
ROMEOVILLE*    CLOUDY    38  35  87 N16       29.63R WCI  30
NORTHERLY ISL    N/A     40  34  79 NW15        N/A
$$

LMZ740>746-190000-
SOUTHERN LAKE MICHIGAN

STATION/POSITION SKY/WX   TEMP    WIND        PRES    VSBY  WAVE
                          AIR SEA DIR/SP/G                  HT/PER
                          (F)     (DEG/KT/KT) (MB)    (MI)  (FT/S)
SOUTHERN BUOY              42 49  360/ 29/ 35  999.5         10/ 8
HARRISON CRIB              41     340/ 33/ 35   N/A
BURNHAM HARBOR             40     310/ 13/ 23   N/A
BURNS HARBOR               43     350/ 28/ 35  999.7R
MICHIGAN CITY              43     340/ 39/ 42   N/A
$$

ILZ025>027-034>036-040-047-049-050-058-095>099-190000-
WEST-CENTRAL ILLINOIS

CITY           SKY/WX    TMP DP  RH WIND       PRES   REMARKS
QUINCY         PTCLDY    41  34  76 NW16      29.84R
GALESBURG*     CLOUDY    39  35  85 NW13G18   29.79R WCI  32
MACOMB*        CLOUDY    40  36  86 NW17      29.82R
JACKSONVILLE*  CLOUDY    41  36  81 NW12      29.80R
PITTSFIELD*    MOCLDY    42  35  76 NW14G23   29.83R
$$

ILZ028>032-037-038-041>044-048-051>054-059>061-190000-
CENTRAL ILLINOIS

CITY           SKY/WX    TMP DP  RH WIND       PRES   REMARKS
PONTIAC        CLOUDY    39  39  99 NW23G29   29.69R WCI  29
BLOOMINGTON    CLOUDY    39  36  89 NW22G28   29.70R WCI  29
DECATUR        CLOUDY    40  40 100 NW16      29.70R
PEORIA         CLOUDY    41  35  79 NW13G25   29.75R
LACON*         CLOUDY    39  35  84 NW14      29.73R WCI  31
LINCOLN*       CLOUDY    42  39  89 NW12G18   29.73R
SPRINGFIELD    CLOUDY    43  39  86 NW18G29   29.76R
TAYLORVILLE    CLOUDY    41  38  89 NW18G24   29.74R
$$

ILZ033-039-045-046-055>057-062-063-190000-
EAST-CENTRAL ILLINOIS

CITY           SKY/WX    TMP DP  RH WIND       PRES   REMARKS
CHAMPAIGN      CLOUDY    39  38  96 NW24G36   29.66R WCI  28
DANVILLE*      LGT RAIN  37  36  93 NW20G29   29.57R WCI  27
RANTOUL*       CLOUDY    40  38  93 NW18G31   29.65R
MATTOON        LGT RAIN  37  36  96 NW26G35   29.65R WCI  25
PARIS*         LGT RAIN  36  35  96 NW18G26   29.62R WCI  26
$$

ILZ079-100>102-190000-
SOUTHWEST ILLINOIS

CITY           SKY/WX    TMP DP  RH WIND       PRES   REMARKS
ALTON          CLOUDY    41  41 100 NW13G22   29.78R
BELLEVILLE     CLOUDY    43  39  87 NW15G22   29.77R
CAHOKIA*       CLOUDY    44  39  82 NW18G25   29.81R
SPARTA*        CLOUDY    41  39  94 NW13G21   29.79R
$$

ILZ064>066-069>071-074>076-080>082-084>086-088>090-092>094-190000-
SOUTH-CENTRAL ILLINOIS

CITY           SKY/WX    TMP DP  RH WIND       PRES   REMARKS
CARBONDALE     LGT RAIN  40  38  93 NW22G31   29.77R
CAIRO*         CLOUDY    45  38  78 NW18G29   29.77R
EFFINGHAM*     LGT RAIN  37  37 100 W17G24    29.71R WCI  27
MARION         LGT RAIN  41  41 100 NW18G29   29.75R
MT. VERNON     LGT RAIN  38  35  89 VRB5      29.74R WCI  34
CENTRALIA*     LGT RAIN  38  38  97 NW14G21   29.73R WCI  30
SALEM*         LGT RAIN  38  36  91 NW14G21   29.73R WCI  30
METROPOLIS*    CLOUDY    45  38  77 NW21G35   29.74R
$$

ILZ067-068-072-073-078-083-087-091-190000-
SOUTHEAST ILLINOIS

CITY           SKY/WX    TMP DP  RH WIND       PRES   REMARKS
LAWRENCEVILLE  LGT RAIN  41  38  89 NW26G33   29.62R
FLORA*         LGT RAIN  37  35  92 NW17G30     N/A  WCI  28
FAIRFIELD*     RAIN      37  37  97 NW9G16    29.70R WCI  31
HARRISBURG*    DRIZZLE   40  38  93 NW25G35   29.72R
ROBINSON*      LGT RAIN  38  37  94 NW23G36   29.60R WCI  28
CARMI*         CLOUDY    41  39  92 NW25G37   29.66R
$$

ABBREVIATIONS USED IN REMARKS
   TC - TEMPERATURE IN CELSIUS
  WCI - WIND CHILL INDEX
   HX - HEAT INDEX
  VSB - VISIBILITY
$$




USA.gov is the U.S. government's official web portal to all federal, state and local government web resources and services.